Tevel 2-1

operational
NORAD ID: 63221 Int'l Des: NNA 2025-052 Owner: TAU/ISA Country: IL
LEOCIRCULARRETROGRADESSO

About Tevel 2-1

Description loading...

Live Position

Loading 3D Globe...

Upcoming Passes

Altitude History

Altitude vs Time

uPlot chart will show altitude changes over time

Two-Line Element Set

1 63221U 25052M 25312.67625646 .00007318 00000-0 34578-3 0 9992
2 63221 97.4094 203.6901 0003437 162.3831 197.7523 15.19701076 36326
Epoch: Nov 8, 2025 • Age: 36 hours

Current Status

Altitude 535.7 km
Velocity 7.59 km/s
Sub-Earth Point -81.47°S, 146.4°W
Launch Date Mar 15, 2025
Age 0.6 years
Type other

Technical Details

Classification Payload
Mass 1.00 kg
Dry Mass 1.00 kg
Total Mass 1.00 kg
Length 0.10 m
Diameter 0.10 m
Span 0.10 m
Shape Box
Manufacturer ISA/TAU
Bus Type Cubesat 1U
Phase Status In Orbit
Owner/State TAU/ISA/IL

Large Constellations

Loading constellations...